sat.trackr.live / text

‹ back to catalog

STARLINK-3964

NORAD 52536 · 2022-051D

PAYLOAD ACTIVE UNKNOWN

§ Identity

Operator
Country
US
Launch date
2022-05-13
Launch site
AFWTR
Launch vehicle
Mass (kg)
RCS (m²)

Purposes: comms

External: N2YO · Heavens-Above · Gunter

§ Orbital elements

Epoch: 2026-09-20T04:47:23.047584Z

Period
93.85 min
Inclination
53.1600°
Eccentricity
0.0001116
Mean motion
15.34391323 rev/d
Perigee alt
462.0 km
Apogee alt
463.5 km
Semi-major
6,840.9 km
B*
2.5192e-5
RAAN
322.7822°
Arg perigee
87.7697°
Mean anomaly
272.3434°
Rev number
24,098

§ Raw data

STARLINK-39641 52536U 22051D   26263.19957231  .00000475  00000+0  25192-4 0  99952 52536  53.1600 322.7822 0001116  87.7697 272.3434 15.34391323240989

JSON: /api/v1/satellites/52536 · /tle

For live sub-satellite position, see the globe view (requires WebGL).

§ Visibility from observer

Set your observer location to see the next 7 days of passes ≥ 10°. The values pass through the URL so the page stays shareable.

No JS? Fill the form by hand. The geolocation button needs JavaScript.